Location: Recife
(8.0585°S, 34.8848°W)
Time: 01:12:35
(UTC-03:00)

S-56A Canister/Altair - Pass Details

Date: 16 April 2026
Orbit: 633 x 2484 km, 38.9° (Epoch: 11 May)

Event Time Altitude Azimuth Distance (km) Brightness Sun altitude
Exits shadow 02:03:29 15° 13° (NNE) 3,446 10.9 -49.5°
Drops below altitude 10° 02:05:22 10° 20° (NNE) 3,970 11.3 -49.0°
Sets 02:09:55 0° 30° (NNE) 5,292 12.1 -47.9°
